Theta_e
288 289 289 289 290 290 290 290 291 292 292 292 293 293 294 294 294 294 293 293 291 291 291 291 291 291 291 291 291 290 290 291 291 284 287 287 287 286 285 285 285 283 283
287 287 287 287 288 288 288 288 288 288 289 290 291 290 291 292 292 292 291 291 291 290 290 289 289 290 289 289 289 288 288 288 289 282 283 283 284 285 284 282 281 282 283
285 285 285 285 286 286 286 286 286 286 287 288 288 289 289 289 290 291 291 290 290 290 290 289 288 288 287 288 288 287 287 283 286 286 280 282 282 284 283 281 281 281 281
285 284 284 284 284 285 286 285 284 285 285 286 287 287 287 288 287 288 288 288 289 289 289 289 289 287 287 287 286 286 285 284 284 284 281 279 279 281 281 279 278 280 280
283 283 283 283 284 284 284 283 282 282 283 284 285 286 286 286 286 286 287 287 287 287 288 288 288 288 288 288 286 285 285 284 283 283 282 279 278 277 277 280 280 280 280
283 282 283 282 282 282 282 282 281 281 281 283 284 284 284 284 287 288 288 286 286 285 285 287 287 286 286 289 290 290 287 284 283 282 282 280 279 279 279 279 279 279 277
282 282 282 281 281 281 280 280 279 279 280 280 282 283 282 283 286 287 288 286 286 285 285 285 285 285 285 285 288 289 289 289 289 284 283 282 280 279 279 279 279 279 280
281 281 281 281 280 280 279 278 278 278 278 278 279 281 280 280 284 286 287 286 286 285 285 285 284 285 285 283 283 284 285 285 286 286 285 285 283 281 281 281 280 280 280
279 279 279 280 279 278 276 276 277 276 276 276 277 277 277 278 283 284 285 285 284 284 285 286 285 284 286 287 282 282 283 283 286 289 288 288 287 285 284 281 278 277 276
278 278 278 278 277 276 276 275 276 275 275 275 275 275 276 276 280 282 283 283 283 284 284 285 285 284 286 288 283 282 281 282 282 283 282 284 284 284 285 282 280 276 276
276 276 275 275 274 274 274 274 273 272 272 271 271 272 273 275 276 281 283 282 282 283 283 284 285 287 287 287 287 282 282 283 283 281 280 280 280 281 281 280 281 279 276
271 270 269 269 269 270 269 269 269 269 268 268 268 269 272 274 277 280 282 283 284 283 282 284 285 287 286 287 286 285 285 285 281 279 277 277 278 278 279 279 280 280 279
265 264 264 265 265 265 265 265 265 266 265 266 267 267 269 272 274 278 281 283 284 282 283 285 286 287 286 285 286 285 283 282 279 278 276 277 278 279 279 277 277 276 276
261 262 262 262 262 263 263 263 263 263 263 264 264 265 267 269 271 274 278 280 281 281 282 283 285 286 284 283 282 284 282 282 280 278 278 279 278 276 274 274 272 273 271
261 261 261 261 261 262 263 262 262 264 264 263 263 264 264 265 268 272 274 274 278 279 279 280 281 281 279 280 280 280 281 281 278 279 278 275 274 273 272 273 272 271 269
260 260 261 261 261 262 261 261 266 267 269 269 270 269 268 271 273 274 276 277 278 280 280 278 278 278 277 278 278 278 279 278 277 277 275 273 272 271 270 271 271 270 269
259 259 260 260 260 260 261 261 260 263 267 268 269 270 271 271 273 274 275 276 278 279 279 279 278 277 277 277 278 278 277 276 275 274 273 272 271 271 270 269 270 269 269
259 259 260 260 261 261 261 261 261 260 260 261 266 267 269 271 272 273 274 276 275 277 278 279 277 277 277 278 278 277 276 274 273 273 272 271 271 270 269 268 268 268 268
259 259 260 261 262 262 262 262 262 262 261 261 262 265 267 269 271 273 275 273 276 279 279 279 278 277 278 277 275 274 273 272 272 271 270 270 270 269 268 268 268 268 267
260 260 261 261 262 263 263 263 263 263 262 262 262 263 265 267 267 271 274 276 276 279 279 278 278 278 275 274 272 271 271 270 270 269 269 268 268 268 267 267 266 265 265
260 261 262 262 262 262 263 264 265 266 264 264 264 266 271 271 272 273 274 276 279 278 275 273 274 273 272 271 270 270 269 269 268 267 267 267 267 266 266 267 266 266 266
260 261 261 261 262 263 263 264 265 264 266 266 266 268 270 267 267 268 269 270 272 273 273 272 271 271 270 269 269 268 267 266 266 266 265 265 266 266 266 266 265 265 264
260 260 260 261 262 262 263 263 263 263 263 263 263 263 263 263 263 263 264 265 265 266 267 268 267 267 267 268 268 267 266 265 266 266 265 264 264 264 265 264 264 264 264
259 259 259 260 261 261 261 261 262 262 261 261 261 261 261 261 261 262 262 263 264 264 264 265 265 265 266 266 266 266 266 266 266 265 265 264 264 264 264 264 264 264 264
258 258 258 259 259 260 260 261 260 260 261 261 260 260 261 261 261 261 261 262 262 262 261 262 262 262 262 262 263 264 265 264 263 264 264 264 263 262 262 262 262 262 262
258 258 258 258 258 259 259 259 260 260 260 260 260 260 260 260 260 260 261 261 260 260 260 260 261 261 260 260 260 261 262 262 260 261 261 261 260 260 260 259 259 258 259
Wind_Speed
11 11 11 10 11 11 11 11 11 10 10 9 10 10 10 10 11 13 14 14 15 15 14 15 16 15 11 10 8 8 8 5 5 2 6 7 11 10 10 8 5 5 5
12 10 10 10 9 9 10 11 11 13 12 11 9 9 10 10 11 13 14 13 16 16 16 17 18 12 16 13 11 12 10 9 5 5 4 5 8 11 10 12 7 4 4
11 10 10 9 9 9 9 10 11 11 11 11 11 12 10 10 11 12 14 15 16 17 16 18 17 17 17 13 13 12 10 5 7 4 4 4 2 9 10 7 10 8 6
10 11 10 10 10 10 9 8 10 11 11 10 10 10 11 11 11 11 11 14 16 16 17 18 18 19 19 18 15 15 12 10 10 6 5 6 5 7 7 8 6 6 7
10 9 9 10 10 10 9 9 9 10 10 11 10 11 10 9 8 11 12 14 15 17 17 18 18 19 24 21 14 15 15 13 10 11 8 5 7 7 13 7 7 6 6
10 11 11 11 11 10 11 10 10 11 11 12 11 11 12 8 16 20 17 14 15 15 17 18 17 18 19 25 28 26 22 19 18 14 12 13 14 10 11 9 8 5 5
11 11 11 11 12 12 12 12 12 13 13 12 14 12 12 13 21 23 22 12 13 15 18 17 16 14 16 17 25 28 28 32 29 19 20 17 15 15 14 14 12 9 3
12 13 14 13 14 13 13 14 14 13 14 14 15 14 14 14 24 25 23 16 14 17 18 19 18 18 17 17 16 19 21 20 23 18 20 17 15 16 17 15 15 9 3
13 14 14 15 15 16 17 18 17 14 15 15 15 16 16 18 26 27 22 15 16 19 17 18 16 19 22 24 17 20 19 20 19 27 19 18 21 29 21 12 12 11 5
13 14 14 15 15 16 18 19 18 16 18 15 19 18 20 21 28 30 24 12 17 14 16 18 26 21 26 25 19 18 18 18 13 13 11 16 20 20 28 18 15 14 6
14 15 15 16 17 18 19 17 18 18 19 20 21 21 22 22 23 32 31 16 14 14 14 14 12 27 31 28 28 17 21 15 20 14 11 10 10 13 12 11 13 11 10
15 17 17 17 15 15 19 18 18 18 20 21 21 21 17 20 26 28 31 30 26 16 17 13 13 23 27 28 24 28 31 27 12 13 13 13 13 12 11 11 11 7 5
15 16 16 17 16 16 18 19 17 16 16 17 16 17 18 15 15 30 31 29 29 20 15 20 25 23 24 23 30 29 26 14 13 15 15 15 14 13 13 11 10 9 7
17 16 15 15 16 16 13 13 14 14 15 16 16 17 16 15 15 13 13 12 16 17 21 17 18 17 21 19 16 22 15 14 12 13 12 9 10 11 10 10 10 9 8
16 16 16 14 15 15 14 13 14 15 17 16 15 16 16 17 14 23 22 15 10 12 11 11 10 10 11 11 11 12 12 12 11 11 9 10 10 10 10 10 9 9 6
16 14 13 14 14 14 14 15 24 32 34 35 37 30 17 32 38 38 36 35 37 33 12 11 10 11 11 11 11 10 10 11 11 10 10 10 10 11 11 10 9 10 8
17 17 14 16 14 15 14 15 16 18 31 33 34 35 36 34 35 36 35 35 34 30 16 11 10 10 10 9 9 9 10 9 11 11 12 11 11 10 14 12 10 9 8
16 21 15 14 14 14 14 14 14 15 16 16 22 26 29 32 32 31 32 29 15 19 17 9 9 9 9 9 8 7 9 10 11 11 11 10 10 11 11 11 10 9 8
15 13 14 14 14 16 15 15 14 15 14 15 15 19 19 27 27 28 30 16 13 9 8 6 8 8 8 7 8 9 11 11 11 10 10 10 10 10 9 9 9 9 9
13 19 18 13 13 14 13 13 13 13 13 12 12 13 13 12 10 11 7 8 7 7 4 6 7 7 9 9 8 9 9 10 10 10 10 10 10 9 10 10 9 9 6
11 13 17 13 12 13 13 13 13 13 10 10 11 13 25 15 9 8 7 9 5 6 8 7 8 9 9 9 9 9 10 9 9 10 10 10 10 10 9 9 9 8 7
11 11 12 12 12 12 12 12 11 11 11 9 9 9 20 9 8 8 8 8 8 8 6 7 6 6 7 9 10 10 10 10 10 10 10 10 9 9 8 8 8 7 6
10 12 12 11 11 14 11 10 10 10 10 9 9 9 8 8 8 8 8 9 9 9 8 7 8 8 8 8 7 8 10 9 10 10 11 10 9 8 8 8 7 6 5
10 11 11 11 11 11 10 11 9 11 11 10 9 9 8 8 8 9 9 8 9 9 8 8 8 10 9 8 7 8 8 9 8 9 12 10 9 9 7 7 7 6 5
9 10 10 10 11 11 11 11 10 10 9 9 9 9 9 9 9 9 9 8 9 9 11 9 8 11 13 14 12 13 14 15 12 10 8 9 9 9 7 6 6 5 4
8 9 9 9 9 10 10 10 11 10 10 9 9 9 9 9 10 10 9 10 9 10 11 9 12 15 14 11 13 14 14 14 11 11 7 7 7 6 5 4 6 3 3
Wind_Direction
19 17 16 14 2 355 354 353 352 342 335 317 307 294 276 256 251 246 239 236 229 226 223 224 223 212 212 204 201 202 211 202 183 23 165 158 181 182 162 181 188 185 211
10 5 8 5 1 359 353 348 344 340 338 332 313 290 283 270 257 254 245 241 238 233 228 223 222 216 220 211 205 204 207 202 189 149 178 160 185 191 188 173 180 192 205
360 353 354 358 351 348 346 342 338 335 327 330 328 320 298 285 272 263 257 247 243 241 234 229 226 220 217 211 209 206 201 185 200 148 151 153 163 179 196 195 175 176 194
342 339 339 342 334 333 327 327 326 323 319 321 318 310 302 291 276 272 257 257 255 247 243 237 231 225 220 211 208 206 197 189 191 176 156 164 161 173 199 195 204 187 185
323 322 317 319 315 315 311 312 314 310 305 304 306 306 298 289 284 274 269 256 253 257 251 241 236 232 229 219 210 206 194 192 190 193 190 172 175 161 191 196 216 182 181
317 312 311 309 307 303 304 301 305 303 301 301 295 296 297 291 286 281 274 266 261 254 256 253 241 235 229 229 223 213 204 195 198 192 197 204 195 183 176 169 193 188 191
299 296 295 297 297 301 304 304 301 300 298 296 294 287 290 292 290 284 280 264 255 256 256 251 249 240 227 224 227 226 217 211 206 197 199 204 190 182 171 174 187 199 198
285 291 296 294 290 292 299 297 299 298 297 295 293 289 289 287 285 284 277 265 261 255 250 253 251 245 234 214 213 223 225 222 220 210 211 202 198 181 180 180 176 171 97
281 281 281 283 286 292 293 293 293 297 295 293 289 287 281 279 279 279 277 268 257 258 254 245 242 251 244 224 211 218 220 228 223 226 215 210 187 177 167 152 167 164 178
290 289 289 288 285 284 284 285 288 291 289 290 287 282 279 275 273 273 269 261 262 258 253 248 237 234 241 240 217 214 216 224 211 214 205 203 188 183 178 178 170 173 156
307 304 300 294 291 289 289 287 289 287 286 285 284 284 280 272 272 270 265 257 251 254 255 251 241 236 235 228 229 217 222 208 208 197 188 187 180 180 181 183 179 171 165
307 302 303 303 299 296 292 289 285 285 283 281 280 279 276 276 270 269 264 256 255 254 253 253 246 233 229 226 224 223 222 214 188 188 182 191 188 181 176 178 166 151 150
309 301 297 296 294 292 290 288 287 282 277 276 274 276 278 279 275 277 274 267 257 256 253 253 254 243 221 224 219 221 219 208 193 196 195 195 190 173 160 152 139 135 121
302 300 298 293 293 289 283 282 280 280 279 278 277 276 280 280 279 278 269 259 260 263 267 260 251 240 203 204 208 219 213 207 199 196 197 182 168 160 152 147 146 147 142
300 299 297 292 289 289 281 280 276 271 270 273 269 269 272 272 275 280 281 283 279 245 254 265 239 213 199 204 206 206 210 202 188 183 180 158 155 152 145 149 145 149 160
301 300 296 295 290 286 285 282 275 280 283 282 281 277 273 273 276 275 273 269 276 275 250 248 241 212 206 200 199 196 204 184 172 163 148 146 151 152 148 147 156 164 160
295 295 293 291 288 288 285 286 289 284 283 284 284 284 282 280 278 275 271 269 268 266 257 241 230 212 207 199 197 187 178 165 148 142 147 159 158 159 155 158 159 159 162
291 289 287 286 287 286 286 286 285 287 290 289 283 283 282 281 277 275 273 268 265 252 252 230 211 197 195 192 188 165 149 145 154 148 151 158 161 157 161 155 158 160 156
296 291 289 287 287 288 287 285 282 281 282 285 291 289 285 286 284 276 266 253 246 240 208 214 193 185 180 154 143 143 145 154 152 148 148 151 149 153 151 144 139 140 141
300 297 293 290 292 295 293 290 286 281 280 281 285 285 293 292 286 283 279 274 259 233 173 182 169 158 131 134 134 140 140 140 142 136 140 138 138 143 137 131 133 139 151
299 299 305 299 299 299 297 298 299 288 273 278 281 286 292 292 303 306 301 272 217 93 91 107 122 127 129 129 133 135 136 133 131 133 135 135 136 135 133 130 137 145 150
311 307 310 309 307 310 313 313 319 327 325 301 306 322 351 349 352 5 3 20 46 72 98 112 110 109 119 127 131 129 130 130 132 132 132 133 130 128 133 135 139 142 149
316 319 319 318 319 320 322 328 333 340 342 345 346 350 0 5 8 16 17 24 36 43 47 64 83 85 86 95 106 123 133 140 140 137 133 131 131 133 135 134 138 139 146
328 329 327 327 330 331 333 337 343 352 356 358 359 3 8 12 16 22 27 31 42 48 53 61 68 84 91 92 98 103 110 116 118 121 124 126 125 128 127 130 142 150 155
335 336 335 335 336 339 339 345 352 357 7 10 10 11 15 20 27 30 31 37 46 53 56 61 68 74 73 82 89 96 102 97 96 100 106 114 121 127 132 134 144 152 166
342 343 341 341 344 345 350 352 356 1 8 14 19 21 22 27 31 34 36 42 47 50 55 54 59 67 71 70 79 89 92 98 96 97 99 110 122 128 130 127 150 148 176